Change the Weather History Date:

Thursday, February 14, 2013

  Actual Average Record
Temperature  
Mean Temperature 21 °F -  
Max Temperature 32 °F 28 °F 127 °F (2011)
Min Temperature 10 °F 9 °F -14 °F (1970)
Degree Days  
Heating Degree Days 44    
Moisture  
Dew Point 20 °F    
Average Humidity 89    
Maximum Humidity 100    
Minimum Humidity 74    
Precipitation  
Precipitation 0.00 in - - ()
Sea Level Pressure  
Sea Level Pressure 29.93 in    
Wind  
Wind Speed 18 mph (NW)    
Max Wind Speed 24 mph    
Max Gust Speed 31 mph    
Visibility 8 miles    
Events Snow    
Averages and records for this station are not official NWS values.
T = Trace of Precipitation, MM = Missing Value Source: NWS Daily Summary

Daily Weather History Graph

Daily Weather History Graph

Search for Another Location

Airport or City:

Trip Planner

Search our weather history database for the weather conditions in past years. The results will help you decide how hot, cold, wet, or windy it might be!

Date:

Astronomy

Feb. 14, 2013 Rise Set
Actual Time 7:20 AM CST 5:49 PM CST
Civil Twilight 6:50 AM CST 6:18 PM CST
Nautical Twilight 6:17 AM CST 6:52 PM CST
Astronomical Twilight 5:43 AM CST 7:26 PM CST
Moon 9:11 AM CST (2/14) 11:05 PM CST (2/14)
Length of Visible Light 11h 28m
Length of Day
10h 28m
Waxing Crescent, 22% of the Moon is Illuminated
Feb 14
Waxing Crescent
Feb 17
First Quarter
Feb 25
Full
Mar 4
Last Quarter
Mar 11
New

Hourly Weather History & Observations

Time (CST) Temp. Windchill Dew Point Humidity Pressure Visibility Wind Dir Wind Speed Gust Speed Precip Events Conditions
12:12 AM 32.0 °F 19.5 °F 30.2 °F 93% 29.62 in 10.0 mi WNW 21.9 mph 27.6 mph N/A   Overcast
12:32 AM 30.2 °F 16.8 °F 28.4 °F 93% 29.64 in 10.0 mi NW 23.0 mph 29.9 mph N/A   Overcast
12:53 AM 30.2 °F 18.1 °F 28.4 °F 93% 29.65 in 10.0 mi NW 18.4 mph 28.8 mph N/A   Overcast
1:12 AM 30.2 °F 18.1 °F 28.4 °F 93% 29.67 in 5.0 mi NW 18.4 mph 28.8 mph N/A   Overcast
1:32 AM 30.2 °F 16.8 °F 28.4 °F 93% 29.68 in 7.0 mi NW 23.0 mph 31.1 mph N/A   Overcast
1:53 AM 30.2 °F 17.1 °F 28.4 °F 93% 29.69 in 5.0 mi NW 21.9 mph 28.8 mph N/A   Overcast
2:12 AM 28.4 °F 14.1 °F 28.4 °F 100% 29.69 in 5.0 mi NW 24.2 mph 29.9 mph N/A   Overcast
2:32 AM 30.2 °F 16.8 °F 28.4 °F 93% 29.71 in 5.0 mi NW 23.0 mph 29.9 mph N/A   Overcast
2:53 AM 28.4 °F 15.4 °F 28.4 °F 100% 29.71 in 5.0 mi NW 19.6 mph 27.6 mph N/A   Overcast
3:12 AM 28.4 °F 15.8 °F 28.4 °F 100% 29.73 in 5.0 mi NW 18.4 mph 24.2 mph N/A   Overcast
3:32 AM 28.4 °F 16.6 °F 28.4 °F 100% 29.73 in 7.0 mi NW 16.1 mph - N/A   Overcast
3:53 AM 28.4 °F 16.6 °F 28.4 °F 100% 29.74 in 7.0 mi NW 16.1 mph 21.9 mph N/A   Overcast
4:12 AM 28.4 °F 15.8 °F 26.6 °F 93% 29.75 in 7.0 mi NW 18.4 mph 24.2 mph N/A   Overcast
4:32 AM 28.4 °F 16.6 °F 26.6 °F 93% 29.77 in 7.0 mi NW 16.1 mph 24.2 mph N/A   Overcast
4:53 AM 28.4 °F 17.5 °F 26.6 °F 93% 29.77 in 5.0 mi NW 13.8 mph - N/A   Overcast
5:12 AM 28.4 °F 16.6 °F 26.6 °F 93% 29.79 in 5.0 mi NW 16.1 mph - N/A   Overcast
5:32 AM 28.4 °F 16.6 °F 26.6 °F 93% 29.79 in 7.0 mi NW 16.1 mph - N/A   Overcast
5:53 AM 28.4 °F 17.5 °F 26.6 °F 93% 29.79 in 5.0 mi NW 13.8 mph - N/A   Overcast
6:12 AM 28.4 °F 19.1 °F 26.6 °F 93% 29.80 in 7.0 mi NW 10.4 mph - N/A   Overcast
6:32 AM 28.4 °F 19.7 °F 26.6 °F 93% 29.81 in 7.0 mi NW 9.2 mph - N/A   Overcast
6:53 AM 28.4 °F 19.7 °F 26.6 °F 93% 29.82 in 7.0 mi WNW 9.2 mph - N/A   Overcast
7:12 AM 26.6 °F 15.7 °F 26.6 °F 100% 29.82 in 10.0 mi WNW 12.7 mph - N/A   Overcast
7:32 AM 28.4 °F 19.7 °F 26.6 °F 93% 29.82 in 10.0 mi WNW 9.2 mph - N/A   Overcast
7:53 AM 28.4 °F 19.7 °F 26.6 °F 93% 29.83 in 10.0 mi WNW 9.2 mph - N/A   Overcast
8:12 AM 28.4 °F 20.4 °F 26.6 °F 93% 29.84 in 10.0 mi WNW 8.1 mph - N/A   Overcast
8:32 AM 28.4 °F 19.1 °F 26.6 °F 93% 29.84 in 10.0 mi WNW 10.4 mph - N/A   Overcast
8:53 AM 28.4 °F 19.7 °F 26.6 °F 93% 29.84 in 10.0 mi WNW 9.2 mph - N/A   Overcast
9:12 AM 28.4 °F - 26.6 °F 93% 29.84 in 10.0 mi Calm Calm - N/A   Mostly Cloudy
9:32 AM 28.4 °F 18.0 °F 26.6 °F 93% 29.85 in 10.0 mi WNW 12.7 mph - N/A   Mostly Cloudy
9:52 AM 28.4 °F 17.5 °F 26.6 °F 93% 29.86 in 1.8 mi WNW 13.8 mph - N/A Snow Light Snow
10:12 AM 28.4 °F 19.1 °F 26.6 °F 93% 29.87 in 0.2 mi NW 10.4 mph - N/A Snow Snow
10:33 AM 28.4 °F 21.2 °F 26.6 °F 93% 29.87 in 0.8 mi WNW 6.9 mph - N/A Snow Light Snow
10:52 AM 28.4 °F 18.5 °F 26.6 °F 93% 29.88 in 2.5 mi NW 11.5 mph - N/A Snow Light Snow
11:12 AM 26.6 °F 14.7 °F 24.8 °F 93% 29.89 in 0.8 mi NNW 15.0 mph - N/A Snow Light Snow
11:33 AM 28.4 °F 17.5 °F 24.8 °F 86% 29.89 in 4.0 mi NNW 13.8 mph - N/A Snow Light Snow
11:52 AM 26.6 °F 14.7 °F 23.0 °F 86% 29.90 in 10.0 mi NNW 15.0 mph - N/A Snow Light Snow
12:12 PM 26.6 °F 15.2 °F 23.0 °F 86% 29.91 in 10.0 mi NNW 13.8 mph - N/A   Overcast
12:33 PM 26.6 °F 13.8 °F 24.8 °F 93% 29.91 in 7.0 mi NNW 17.3 mph - N/A Snow Light Snow
12:52 PM 26.6 °F 15.2 °F 24.8 °F 93% 29.92 in 10.0 mi NNW 13.8 mph - N/A   Mostly Cloudy
1:12 PM 26.6 °F 13.4 °F 23.0 °F 86% 29.92 in 10.0 mi NW 18.4 mph - N/A   Overcast
1:33 PM 26.6 °F 12.7 °F 23.0 °F 86% 29.92 in 10.0 mi NW 20.7 mph - N/A   Overcast
1:52 PM 26.6 °F 12.0 °F 23.0 °F 86% 29.93 in 10.0 mi NW 23.0 mph - N/A   Overcast
2:12 PM 26.6 °F 12.7 °F 21.2 °F 80% 29.95 in 10.0 mi NW 20.7 mph 25.3 mph N/A   Scattered Clouds
2:33 PM 24.8 °F 10.3 °F 21.2 °F 86% 29.96 in 10.0 mi NW 20.7 mph 25.3 mph N/A   Mostly Cloudy
2:52 PM 24.8 °F 10.0 °F 19.4 °F 80% 29.97 in 7.0 mi NW 21.9 mph - N/A   Scattered Clouds
3:12 PM 23.0 °F 7.6 °F 19.4 °F 86% 29.99 in 10.0 mi NW 21.9 mph - N/A   Clear
3:33 PM 24.8 °F 10.0 °F 17.6 °F 74% 30.00 in 10.0 mi NW 21.9 mph - N/A   Clear
3:52 PM 21.2 °F 4.9 °F 17.6 °F 86% 30.02 in 7.0 mi NNW 23.0 mph 27.6 mph N/A   Clear
4:12 PM 21.2 °F 4.5 °F 17.6 °F 86% 30.02 in 10.0 mi NW 24.2 mph 28.8 mph N/A   Clear
4:33 PM 21.2 °F 4.5 °F 15.8 °F 80% 30.04 in 7.0 mi NW 24.2 mph 28.8 mph N/A   Clear
4:52 PM 19.4 °F 3.6 °F 15.8 °F 86% 30.06 in 10.0 mi NW 19.6 mph 27.6 mph N/A   Clear
5:12 PM 17.6 °F 0.1 °F 14.0 °F 86% 30.07 in 10.0 mi NW 23.0 mph - N/A   Clear
5:33 PM 17.6 °F 0.5 °F 14.0 °F 86% 30.07 in 10.0 mi NW 21.9 mph 26.5 mph N/A   Clear
5:52 PM 17.6 °F 0.5 °F 12.2 °F 79% 30.09 in 10.0 mi NW 21.9 mph 27.6 mph N/A   Clear
6:12 PM 15.8 °F -1.9 °F 12.2 °F 86% 30.11 in 10.0 mi NW 21.9 mph 29.9 mph N/A   Clear
6:33 PM 15.8 °F -1.5 °F 10.4 °F 79% 30.12 in 10.0 mi NW 20.7 mph 25.3 mph N/A   Clear
6:52 PM 14.0 °F -3.9 °F 8.6 °F 79% 30.12 in 10.0 mi NW 20.7 mph 27.6 mph N/A   Clear
7:12 PM 12.2 °F -6.3 °F 8.6 °F 85% 30.13 in 10.0 mi NW 20.7 mph - N/A   Clear
7:33 PM 12.2 °F -6.7 °F 8.6 °F 85% 30.14 in 10.0 mi NW 21.9 mph - N/A   Clear
7:52 PM 12.2 °F -6.7 °F 8.6 °F 85% 30.16 in 10.0 mi NW 21.9 mph 31.1 mph N/A   Clear
8:12 PM 12.2 °F -6.7 °F 6.8 °F 79% 30.16 in 10.0 mi NW 21.9 mph 25.3 mph N/A   Clear
8:33 PM 12.2 °F -6.7 °F 6.8 °F 79% 30.16 in 10.0 mi NW 21.9 mph - N/A   Clear
8:52 PM 12.2 °F -7.1 °F 6.8 °F 79% 30.17 in 10.0 mi NW 23.0 mph - N/A   Clear
9:12 PM 10.4 °F -9.1 °F 6.8 °F 85% 30.18 in 10.0 mi NW 21.9 mph 29.9 mph N/A   Clear
9:33 PM 10.4 °F -9.1 °F 6.8 °F 85% 30.18 in 10.0 mi NW 21.9 mph - N/A   Clear
9:52 PM 10.4 °F -8.2 °F 6.8 °F 85% 30.18 in 10.0 mi NW 19.6 mph - N/A   Clear
10:12 PM 10.4 °F -7.7 °F 5.0 °F 79% 30.18 in 10.0 mi NW 18.4 mph - N/A   Clear
10:33 PM 10.4 °F -9.1 °F 5.0 °F 79% 30.18 in 10.0 mi NW 21.9 mph - N/A   Clear
10:52 PM 10.4 °F -7.7 °F 6.8 °F 85% 30.20 in 10.0 mi NW 18.4 mph 26.5 mph N/A   Clear
11:12 PM 10.4 °F -7.7 °F 6.8 °F 85% 30.20 in 10.0 mi NW 18.4 mph - N/A   Clear
11:33 PM 10.4 °F -6.0 °F 6.8 °F 85% 30.20 in 10.0 mi NW 15.0 mph - N/A   Clear
11:52 PM 10.4 °F -6.6 °F 6.8 °F 85% 30.20 in 10.0 mi NW 16.1 mph - N/A   Clear